Regional Weather Roundup
Issued by NWS Albany, NY

Home | Current Version | Previous Version | Text Only | Print | Product List | Glossary On
Versions: 1 2 3 4 5 6 7 8 9 10 11 12 13 14 15 16 17 18 19 20 21 22 23 24 25 26 27 28 29 30 31 32 33 34 35 36 37 38 39 40 41 42 43 44 45 46 47 48 49 50
000
ASUS41 KALY 261410
RWRALY

NEW YORK STATE HOURLY WEATHER ROUNDUP
NATIONAL WEATHER SERVICE ALBANY NY
900 AM EST FRI DEC 26 2014

NOTE: "FAIR" INDICATES FEW OR NO CLOUDS BELOW 12,000 FEET WITH NO
SIGNIFICANT WEATHER AND/OR NO OBSTRUCTIONS TO VISIBILITY.

NYZ032-033-038>043-046>054-057>066-NYZ062>081-261500-
EAST


CITY           SKY/WX    TMP DP  RH WIND       PRES   REMARKS
ALBANY         CLOUDY    41  28  60 NW10      30.22R
GLENS FALLS    CLOUDY    41  29  62 W6        30.17R
POUGHKEEPSIE   SUNNY     36  30  79 CALM      30.22R
NEWBURGH       MOSUNNY   37  30  75 W12       30.23R WCI  30
MONTGOMERY     SUNNY     40  28  62 W7        30.21R
WHITE PLAINS   SUNNY     39  28  64 W8        30.22R WCI  33
ISLIP          MOSUNNY   41  31  67 W8        30.22R
NEW YORK CITY  MOSUNNY   42  28  57 W12       30.25R
CENTRAL PARK   SUNNY     41  27  57 VRB5      30.27R
$$

NYZ005>009-017-018-044>046-055-056-261500-
CENTRAL


CITY           SKY/WX    TMP DP  RH WIND       PRES   REMARKS
FULTON         CLOUDY    40  31  70 W8        30.22R WCI  34
SYRACUSE       CLOUDY    39  31  72 W7        30.22S WCI  34
ROME           CLOUDY    38  30  73 W9        30.24R WCI  31
ELMIRA         PTSUNNY   33  29  85 CALM      30.23R
BINGHAMTON     SUNNY     36  26  67 NW6       30.19R WCI  31
MONTICELLO     CLOUDY    36  27  69 NW8       30.20S WCI  29
$$

NYZ026>034-041>043-261500-
NORTH


CITY           SKY/WX    TMP DP  RH WIND       PRES   REMARKS
WATERTOWN      CLOUDY    40  29  64 W12       30.19R WCI  33
FORT DRUM      NOT AVBL
MASSENA        CLOUDY    39  29  67 SW15G21   30.14R WCI  31
SARANAC LAKE   CLOUDY    33  27  78 W10G20    30.09R WCI  25
PLATTSBURGH    CLOUDY    41  28  60 W8G23     30.12R
$$

NYZ001>004-010>016-019>021-261500-
WEST


CITY           SKY/WX    TMP DP  RH WIND       PRES   REMARKS
NIAGARA FALLS  PTCLDY    38  32  79 SW16      30.19R WCI  29
BUFFALO        MOCLDY    39  30  70 SW10      30.20R WCI  32
DUNKIRK        MOCLDY    38  30  73 S12G21    30.21F WCI  30
JAMESTOWN      CLOUDY    34  27  75 S6        30.21R WCI  29
WELLSVILLE     CLOUDY    32  25  75 W8        30.20R WCI  25
ROCHESTER      CLOUDY    40  30  67 SW13      30.22R WCI  32
PENN YAN       CLOUDY    38  28  67 SW8       30.22R WCI  32
$$

             KEY
       WCI = WIND CHILL INDEX
       VSB = VISIBILITY
       HX  = HEAT INDEX
$$


USA.gov is the U.S. government's official web portal to all federal, state and local government web resources and services.